LEMUR-2-JOHN-TREIRES (48925 NORAD) Tracking and Keplerian Element Data

This shows tracking and keplerian element data for the satellite.

Feedback or suggestion? Click here.




ElementValue
Catalog48925
NameLEMUR-2-JOHN-TREIRES
Epoch Orbit1396
Epoch Day269.1286165
Epoch Year2021
RAAN36.7087
Inclination97.5228
Eccentricity0.0013798
Argument of Perigee289.286
Mean Anonmoly70.6879
Mean Motion15.13634272
Decay Rate3.79E-05
L11 48925U 21059AY 21269.12861650 .00003790 00000-0 21416-3 0 9990
L22 48925 97.5228 36.7087 0013798 289.2860 70.6879 15.13634272 13967

Live tracking and technical data element details for LEMUR-2-JOHN-TREIRES (NORAD 48925). LEMUR-2-JOHN-TREIRES can be tracked NOW for your location showing map with azimuth and elevation plus other details from your city location.

Track the satellite on the map from your city or location and see movement details for azimuth, elevation, latitude, longitude, range, height, and movement on the map or in text.







IsCatalogInMostPopularTable: catalog: 48925, numindb: 14
Update: records affected: 1



GetName: 48925 LEMUR-2-JOHN-TREIRES

Hit Count: updated at: Sun, 26 Sep 2021 15:12:22 GMT